User: anonymous
Location: Waldport
(44.4270°N, 124.0680°W)
Time: 22:22:07
(UTC-07:00)
Language:

Cosmos 1023 Rocket - Orbit

View from above orbital plane
View from above orbital plane
View from above satellite
View from above satellite

Ground track
Ground track

The orbit data is extracted from the following two-line orbital elements,

1 10962U 78063B   14293.39296789  .00000447  00000-0  14744-3 0  8766
2 10962 074.0818 210.7032 0025448 000.6481 141.2006 14.40732327906052
Epoch (UTC): 20 October 2014 09:25:52
Eccentricity: 0.0025448
inclination: 74.0818°
perigee height: 738 km
apogee height: 774 km
right ascension of ascending node: 210.7032°
argument of perigee: 0.6481°
revolutions per day: 14.40732327
mean anomaly at epoch: 141.2006°
orbit number at epoch: 90605

The dashed part of the orbit path shows where the satellite is in the earth's shadow,  

DLR